Presure
125 142 109 143 98 120 104 174 136 131 116 151 168 154 187 181 181 160 189 150 222 182 192 154 189 153 158 185 162 181 131 202 194 165 147 184 165 202
159 148 102 122 147 103 154 172 128 146 154 172 162 175 188 172 162 179 190 222 170 174 170 193 172 182 192 183 154 163 168 159 176 188 193 162 183 194
119 164 101 97 101 154 168 99 121 141 169 166 178 172 175 173 170 171 182 161 178 164 180 178 176 184 156 137 173 163 160 189 173 187 189 205 186 202
101 115 99 177 204 158 162 190 138 173 147 177 165 169 185 185 188 183 167 204 165 181 194 166 180 163 164 160 154 185 161 160 200 187 198 166 195 183
155 139 107 145 148 174 198 193 157 200 217 184 182 179 162 171 182 187 151 206 186 185 189 161 179 178 176 179 189 183 190 209 192 183 194 189 185 175
139 168 186 151 152 192 196 187 172 175 170 187 131 176 192 178 173 198 176 169 183 175 169 165 140 185 201 175 192 179 196 193 199 194 185 179 210 178
161 191 174 191 142 159 154 187 157 193 184 189 192 164 180 162 192 207 196 182 184 173 196 185 188 195 193 206 162 194 164 193 192 162 191 188 163 171
208 188 173 136 183 154 144 199 201 199 187 171 163 176 198 180 162 184 176 195 182 181 184 147 191 167 176 188 182 176 189 175 191 181 180 192 162 198
177 186 157 187 170 185 203 195 148 163 190 187 172 172 213 196 168 195 185 190 169 161 190 198 178 179 207 182 167 186 187 184 188 184 170 205 189 180
163 156 183 161 183 149 197 197 178 164 185 198 192 188 183 174 184 184 176 174 161 184 177 167 203 214 184 179 179 180 190 200 173 186 196 201 180 209
172 142 158 186 163 197 208 186 219 184 191 188 166 180 193 202 181 174 195 177 180 195 163 190 194 181 173 201 177 181 153 190 176 184 202 214 199 212
183 178 222 199 205 193 195 223 200 157 213 163 180 195 178 197 196 173 171 201 157 175 183 179 179 168 156 154 174 181 177 184 188 197 201 210 215 206
186 185 174 153 194 190 187 193 202 182 186 199 175 182 181 182 190 180 178 186 181 183 177 191 172 187 188 185 189 178 189 196 203 202 207 213 219 275
204 189 186 197 175 194 193 177 182 181 175 195 190 187 179 182 176 181 185 194 183 188 193 174 190 199 192 188 192 186 194 198 198 239 256 254 214 289
186 172 209 202 195 189 172 200 182 188 199 200 187 173 173 189 168 194 188 177 177 177 194 203 186 200 191 204 212 195 200 204 216 233 250 225 229 333
162 208 194 188 178 181 185 186 184 184 193 193 171 187 190 181 191 194 191 199 191 193 190 206 193 203 218 196 192 213 232 240 243 214 305 239 225 249
199 199 205 186 186 187 184 197 191 195 182 192 203 190 187 193 196 194 205 200 194 199 198 227 229 205 230 222 213 232 260 243 232 230 252 321 241 268
215 210 203 218 204 209 203 205 202 205 208 209 200 199 198 186 199 200 206 212 215 221 258 243 237 235 246 252 247 271 256 228 233 227 230 265 277 274
240 216 223 207 213 219 195 217 210 211 214 213 211 212 223 245 275 226 223 263 236 245 227 279 238 242 299 271 205 251 247 235 219 300 280 275 262 274
272 277 308 278 249 248 251 279 264 274 269 248 246 259 227 240 237 246 253 264 252 268 242 238 248 272 246 270 267 240 252 229 287 279 266 267 260 255
258 243 265 446 402 396 302 299 238 253 255 258 269 249 267 245 237 253 269 264 244 270 291 256 270 272 264 244 257 246 254 282 271 260 275 265 266 251
452 526 502 439 400 400 408 355 332 324 329 323 324 251 215 272 214 294 287 283 216 262 282 294 271 274 271 256 265 282 280 282 253 266 255 245 250 246
459 438 498 434 392 363 350 356 317 327 363 250 233 226 234 299 303 300 298 292 319 287 279 298 259 268 294 287 268 279 277 249 266 256 252 248 249 242
Wind_Speed
46 53 60 54 50 61 67 67 53 61 60 59 63 49 72 67 69 39 68 51 63 55 61 66 69 73 62 69 57 69 91 89 81 78 87 63 91 95
67 60 62 56 65 48 60 68 57 52 62 59 60 65 76 53 44 67 77 75 42 49 51 73 46 63 73 78 70 59 69 84 86 75 88 75 74 77
60 70 58 52 65 68 66 53 62 57 59 60 70 72 53 62 62 59 81 46 63 55 67 63 59 72 70 91 61 66 73 85 87 78 78 113 91 105
49 60 61 75 77 51 66 86 66 69 70 75 71 54 77 84 87 87 59 92 54 73 71 47 72 65 58 70 83 84 80 78 106 75 104 79 100 69
70 71 70 69 54 75 90 84 57 91 86 74 78 75 62 67 80 88 61 89 84 80 84 56 71 71 68 74 92 80 94 96 92 70 100 84 80 68
73 76 90 55 80 93 83 90 73 78 70 86 83 77 88 86 72 93 77 72 80 65 59 83 91 83 94 75 90 72 95 97 106 105 92 92 125 74
68 78 82 91 65 69 68 89 61 100 88 92 99 60 88 60 101 100 98 84 82 75 92 84 83 93 97 101 74 98 90 106 109 82 104 99 80 88
94 99 85 82 96 64 70 105 102 102 95 78 58 85 106 94 71 83 83 96 87 79 84 91 93 70 78 82 79 67 104 75 113 94 94 112 84 122
91 100 92 105 91 105 106 107 72 66 106 105 84 83 105 107 77 100 85 92 77 83 95 105 88 84 105 83 75 101 109 110 117 111 81 126 103 90
74 70 104 94 106 88 107 111 92 82 100 110 104 101 93 79 89 79 79 84 82 88 76 79 114 109 88 86 86 93 119 122 89 117 124 115 90 121
102 86 91 109 84 119 119 109 120 112 117 107 74 86 105 104 80 76 113 82 91 115 88 102 110 86 80 116 91 109 93 122 96 110 123 125 106 116
102 101 114 119 124 123 125 117 117 87 117 82 88 117 79 117 115 78 85 123 90 97 104 92 94 79 87 87 95 110 102 110 112 125 127 116 115 104
113 106 101 88 113 112 104 109 118 98 108 114 89 100 98 106 124 99 99 115 112 109 94 128 89 124 122 116 116 102 121 127 133 128 125 110 110 94
125 120 118 121 98 122 129 105 115 109 99 131 125 118 109 115 106 116 124 135 120 123 133 98 132 131 132 124 121 114 132 131 118 117 111 106 98 93
115 100 128 131 139 128 104 134 118 134 139 133 130 101 105 132 98 137 132 116 114 111 134 139 119 134 125 141 144 127 128 123 118 105 105 97 89 61
90 131 136 133 118 122 129 133 130 127 141 136 111 138 140 128 142 139 140 145 134 137 123 146 132 132 140 122 112 124 125 113 106 88 93 93 81 72
129 135 148 122 122 133 127 149 143 139 132 146 150 140 138 141 141 140 149 138 129 141 137 146 140 132 133 124 114 119 107 105 96 96 90 63 80 71
153 153 145 156 146 148 150 154 153 155 157 158 156 152 143 113 141 141 144 156 147 153 130 129 133 130 125 113 113 104 99 96 94 90 91 79 67 61
162 135 161 133 157 166 126 160 151 157 166 164 147 148 156 150 130 164 160 129 142 135 122 113 114 119 96 110 87 99 99 94 89 66 68 67 67 57
132 133 135 153 164 166 154 136 146 134 133 151 154 133 161 158 154 145 134 128 132 122 125 122 118 106 113 103 97 97 95 94 70 65 70 65 64 60
124 124 126 97 104 104 116 124 117 134 137 136 127 136 127 143 119 136 117 127 123 106 104 113 104 104 106 100 96 96 89 65 64 66 59 59 53 58
63 60 67 73 89 68 65 99 108 106 110 101 100 122 107 104 108 107 112 108 105 113 101 90 100 99 96 94 88 66 64 59 67 61 61 63 59 60
61 60 50 71 70 75 87 79 92 91 63 115 110 119 124 100 98 99 100 97 73 92 95 71 94 91 64 65 73 62 57 65 61 62 62 60 61 62
Wind_Direction
268 277 269 280 299 274 291 290 285 283 303 294 307 303 308 313 318 309 317 274 312 310 318 272 331 271 273 332 292 335 309 339 341 304 311 329 305 349
265 275 276 275 280 297 290 279 305 286 290 291 307 297 308 315 306 309 318 314 310 310 299 327 306 311 326 330 295 289 308 292 322 338 347 309 326 342
269 275 285 298 294 292 293 304 300 286 304 302 301 308 299 313 314 314 318 282 307 296 323 324 309 324 284 295 314 288 291 337 334 341 340 343 329 344
295 297 297 290 277 286 290 291 274 301 300 306 309 301 303 311 312 315 290 315 300 318 311 298 314 291 290 282 282 330 289 285 343 330 341 303 342 320
279 270 285 287 277 278 284 278 291 290 285 300 304 307 291 312 314 313 275 313 313 313 319 281 317 319 320 324 331 324 328 336 337 326 335 335 328 304
277 283 282 278 278 286 285 292 290 297 292 298 286 307 298 307 311 307 307 295 309 294 298 294 284 316 321 308 316 319 336 339 336 337 320 314 331 310
283 267 284 278 271 287 285 287 288 291 290 295 297 292 306 300 303 301 303 307 313 297 314 318 319 317 322 319 284 332 301 336 335 290 325 330 307 306
264 278 286 264 286 283 273 284 283 284 292 299 292 303 294 300 296 292 301 306 307 302 316 287 320 289 313 324 322 309 328 316 331 325 324 324 294 326
283 278 273 282 289 286 279 282 277 291 290 292 294 303 294 296 292 304 305 306 284 280 313 317 297 304 321 313 288 327 329 328 325 317 305 321 321 312
282 280 282 278 283 279 281 281 291 285 292 287 293 294 296 298 305 303 292 293 276 311 298 294 316 318 307 309 296 319 324 319 314 322 321 322 307 318
275 271 276 281 274 280 277 286 279 290 288 288 285 282 301 299 298 295 306 297 304 309 290 314 316 310 305 314 316 318 297 317 308 316 319 318 315 315
276 284 270 279 280 285 285 278 285 275 290 271 291 301 290 300 301 285 284 304 277 298 306 309 310 297 285 286 310 314 314 313 313 317 316 312 312 313
274 282 274 269 278 287 284 288 292 288 295 295 287 298 292 298 302 297 298 306 306 305 301 308 301 308 308 309 306 310 314 313 311 311 311 308 308 309
276 280 280 282 282 288 288 289 292 291 287 292 295 294 294 296 297 298 301 301 299 299 304 298 306 304 306 305 307 306 308 309 308 303 302 305 304 306
285 280 273 276 280 286 284 281 287 289 287 286 292 288 291 295 289 295 297 295 294 296 300 297 301 301 304 304 300 305 305 305 304 305 302 302 303 296
282 268 275 280 282 283 284 283 285 288 287 283 287 289 290 291 289 290 293 293 295 296 295 295 299 299 295 298 302 300 300 299 301 300 298 301 298 298
271 274 271 275 276 277 280 277 282 280 287 285 281 284 287 286 288 290 289 291 295 294 293 289 291 296 295 298 298 298 295 298 297 300 297 293 296 287
269 270 275 270 275 276 277 276 278 277 278 278 282 284 283 284 286 287 290 288 287 291 282 287 289 294 290 288 293 292 294 298 297 297 297 291 286 284
264 272 267 279 274 272 276 273 278 277 276 278 281 282 281 279 273 285 287 278 288 284 290 277 285 292 280 284 294 293 296 295 296 289 283 283 282 281
267 266 264 268 268 270 270 261 268 265 264 271 273 270 279 277 280 279 278 275 281 275 282 288 286 280 290 284 291 294 293 295 289 279 280 279 279 279
272 276 268 250 249 250 261 258 270 267 267 266 262 270 269 273 277 275 273 273 280 277 275 280 280 280 283 289 289 292 292 279 280 280 279 277 272 275
263 263 246 242 246 253 255 250 257 254 258 256 258 266 276 267 285 267 269 272 287 275 276 277 278 280 283 287 289 279 275 276 280 274 272 271 272 272
259 252 250 229 231 232 243 239 251 255 252 264 270 272 275 262 263 265 268 271 270 273 274 272 279 280 272 279 280 269 269 276 271 267 268 269 269 269